This is the latest recevied weather packets stored in our database for station/object JE6MIQ-13. If no packets are shown the sender has not sent any weather packets the latest 10 day(s).
| Time | Temp. | Humidity | Pressure | Rain* | Wind** | Luminosity | Snow |
|---|---|---|---|---|---|---|---|
| 1777654353 | 12.22° C | 50% | 1013.3 hPa | 0 mm | - | - | - |
| 1777653754 | 12.22° C | 52% | 1013.3 hPa | 0 mm | - | - | - |
| 1777653152 | 12.78° C | 52% | 1013.2 hPa | 0 mm | - | - | - |
| 1777652553 | 12.22° C | 49% | 1013.2 hPa | 0 mm | - | - | - |
| 1777651953 | 12.78° C | 52% | 1013.1 hPa | 0 mm | - | - | - |
| 1777651353 | 12.78° C | 51% | 1013.1 hPa | 0 mm | - | - | - |
| 1777650753 | 12.78° C | 52% | 1013 hPa | 0 mm | - | - | - |
| 1777650154 | 12.78° C | 44% | 1013 hPa | 0 mm | - | - | - |
| 1777649552 | 12.78° C | 44% | 1013 hPa | 0 mm | - | - | - |
| 1777648953 | 12.78° C | 41% | 1013.2 hPa | 0 mm | - | - | - |
| 1777648353 | 13.33° C | 42% | 1013.2 hPa | 0 mm | - | - | - |
| 1777647754 | 13.33° C | 43% | 1012.7 hPa | 0 mm | - | - | - |
| 1777647152 | 13.33° C | 40% | 1013 hPa | 0 mm | - | - | - |
| 1777646552 | 13.33° C | 38% | 1013 hPa | 0 mm | - | - | - |
| 1777645953 | 13.89° C | 38% | 1012.7 hPa | 0 mm | - | - | - |
| 1777645353 | 14.44° C | 39% | 1012.8 hPa | 0 mm | - | - | - |
| 1777644754 | 13.89° C | 42% | 1012.8 hPa | 0 mm | - | - | - |
| 1777644152 | 13.89° C | 43% | 1012.6 hPa | 0 mm | - | - | - |
| 1777643552 | 13.89° C | 42% | 1012.5 hPa | 0 mm | - | - | - |
| 1777642952 | 13.89° C | 36% | 1012.5 hPa | 0 mm | - | - | - |
| 1777642352 | 13.89° C | 37% | 1012.5 hPa | 0 mm | - | - | - |
| 1777641752 | 14.44° C | 38% | 1012.5 hPa | 0 mm | - | - | - |
| 1777641152 | 14.44° C | 40% | 1012.5 hPa | 0 mm | - | - | - |
| 1777640552 | 14.44° C | 36% | 1012.3 hPa | 0 mm | - | - | - |
| 1777639952 | 14.44° C | 33% | 1012.2 hPa | 0 mm | - | - | - |
* Rain latest hour (hover to see other rain measurements)
** Current wind speed in m/s (hover to see current wind gust speed)